Flight Track Log - Related Links

Times and Time Zones

All times are in EDT time to prevent confusion due to time zone crossing. See the CTL311 flight status page for this flight to view local times or setup timezone preferences in your user account.

Time Position Orientation Groundspeed Altitude Reporting Facility
EDT Latitude Longitude Course Direction KTS MPH feet Rate Location/Type
Wed 02:24:10 AM 40.1186 -83.0764 335° Northwest 149 171 2,200  Level Indianapolis Center
Wed 02:25:11 AM 40.1533 -83.0967 336° Northwest 148 170 3,100 843 Climbing Indianapolis Center
Wed 02:26:11 AM 40.1936 -83.1189 337° Northwest 152 175 3,900 800 Climbing Indianapolis Center
Wed 02:27:11 AM 40.2347 -83.1425 336° Northwest 157 181 4,700 750 Climbing Indianapolis Center
Wed 02:28:11 AM 40.2750 -83.1667 335° Northwest 158 182 5,400 595 Climbing Indianapolis Center
Wed 02:29:00 AM 40.3860 -83.2635 335° Northwest  Level FlightAware Approximate
Wed 02:29:12 AM 40.3153 -83.1903 336° Northwest 158 182 5,900  Level Indianapolis Center
Wed 02:30:12 AM 40.3583 -83.2167 335° Northwest 162 186 5,900  Level Indianapolis Center
Wed 02:31:12 AM 40.4067 -83.2442 337° Northwest 176 203 5,900  Level Indianapolis Center
Wed 02:32:12 AM 40.4542 -83.2783 331° Northwest 186 214 5,900 50 Level Indianapolis Center
Wed 02:33:12 AM 40.5008 -83.3086 334° Northwest 186 214 6,000  Climbing Indianapolis Center
Wed 02:34:12 AM 40.5497 -83.3339 339° North 188 216 5,900 -50 Descending Indianapolis Center
Wed 02:35:13 AM 40.5969 -83.3619 336° Northwest 186 214 5,900  Level Indianapolis Center
Wed 02:36:13 AM 40.6456 -83.3892 337° Northwest 187 215 5,900  Level Indianapolis Center
Wed 02:37:13 AM 40.6886 -83.4233 329° Northwest 182 209 5,900  Level Indianapolis Center
Wed 02:38:13 AM 40.7350 -83.4542 333° Northwest 184 212 5,900 50 Level Indianapolis Center
Wed 02:39:13 AM 40.7783 -83.4936 325° Northwest 186 214 6,000 50 Climbing Indianapolis Center
Wed 02:40:13 AM 40.8208 -83.5319 326° Northwest 187 215 6,000 50 Level Indianapolis Center
Wed 02:41:14 AM 40.8631 -83.5642 330° Northwest 178 205 6,100  Climbing Indianapolis Center
Wed 02:42:14 AM 40.9086 -83.5944 333° Northwest 189 217 6,000 -37 Descending Indianapolis Center
Wed 02:43:55 AM 40.9917 -83.6286 343° North 187 215 6,000  Level Cleveland Center

Login

Don't have an account? Register now (free) for customized features, flight alerts, and more!